Location: Dal�� Lhota
(48.7500°N, 14.0167°E)
Time: 22:54:26
(UTC+00:00)

Cosmos 1025 Rocket - Pass Details

Date: 24 September 2020
Orbit: 595 x 617 km, 82.5° (Epoch: 25 October)

Event Time Altitude Azimuth Distance (km) Brightness Sun altitude
Rises 18:27:47 0° 344° (NNW) 2,894 7.0 -15.6°
Reaches altitude 10° 18:30:05 10° 337° (NNW) 1,987 6.2 -16.0°
Maximum altitude 18:34:13 41° 268° (W) 897 4.4 -16.6°
Drops below altitude 10° 18:38:20 10° 198° (SSW) 1,977 5.6 -17.3°
Sets 18:40:38 0° 191° (S) 2,878 6.4 -17.6°
